Погода в Лабе

Гвинея     11°25′48″N   12°17′47″W
темп.,
°C
ветер,
м/с
пор.,
м/с
влажн.,
%
обл.,
%
осадки,
мм/ч
давл.,
гПа
погр.,
м
9 августа, вт
вт900:00+20ссв1195100 8.4 101517
03:00+19зсз0199100 4.4 101439
06:00+19з1299100 5.1 101587
09:00+21всв009199 0.0 1016279
12:00+25ссз337499 0.0 1015931
15:00+26с337227 1.0 1012979
18:00+24с238661 2.4 1013487
21:00+21ссв1196100 3.9 101511
10 августа, ср
ср1000:00+20юз1195100 5.4 101511
03:00+20ю1194100 5.1 101323
06:00+20юз119495 7.0 101418
09:00+22зюз1288100 0.4 1014288
12:00+25ссз118040 3.4 1015714
15:00+26зсз117696 2.3 1012828
18:00+23ссв1291100 6.9 101250
21:00+21ссв1192100 8.3 101413
11 августа, чт
чт1100:00+20ююз129695 9.2 101550
03:00+20з239498 1.8 101377
06:00+20юз2293100 3.6 101437
09:00+21юз1191100 0.1 1015111
12:00+21ююз128798 1.7 1015104
15:00+25юз117672 2.2 1012872
18:00+22зюз129196 6.3 1012311
21:00+20ююз2396100 1.8 101588
12 августа, пт
пт1200:00+19ююз249687 1.8 1016185
03:00+19юз2495100 0.0 1014223
06:00+18ююз239744 0.0 1014128
09:00+21юз258784 0.0 1015595
12:00+24юз358191 1.1 10151058
15:00+25зюз347290 1.6 10121199
18:00+22зюз269071 5.3 1013599
21:00+20зюз259699 0.9 1015219
13 августа, сб
сб1300:00+19зюз1397100 1.3 1016136
03:00+19з1398100 1.3 1015239
06:00+19з2498100 1.8 1015265
09:00+20зюз2693100 0.2 1016525
12:00+21юз1390100 2.1 1016388
15:00+20зсз1295100 6.1 1015103
18:00+19з1297100 11.1 101567
21:00+19з1299100 7.8 1016101